Regional Weather Roundup
Issued by NWS

Home | Current Version | Previous Version | Graphics & Text | Print | Product List | Glossary On
Versions: 1 2 3 4 5 6 7 8 9 10 11 12 13 14 15 16 17 18 19 20 21 22 23 24 25 26 27 28 29 30 31 32 33 34 35 36 37 38 39 40 41 42 43 44 45 46 47 48 49 50
067
ASUS44 KJAN 240610
RWRMS

MISSISSIPPI HOURLY WEATHER ROUNDUP
NATIONAL WEATHER SERVICE JACKSON MS
100 AM CDT THU APR 24 2014

NOTE: "FAIR: INDICATES FEW OR NO CLOUDS BELOW 12,000 FEET WITH NO
SIGNIFICANT WEATHER AND/OR OBSTRUCTIONS TO VISIBILITY.

MSZ001>002-007>008-010>013-018>021-025>028-034>036-240700-
NORTHWEST MISSISSIPPI

CITY           SKY/WX    TMP DP  RH WIND       PRES   REMARKS
CLARKSDALE       N/A     57  46  67 CALM      29.93F
CLEVELAND      FAIR      59  52  78 CALM      29.92S
GREENWOOD      FAIR      55  47  74 N3        29.92S
6HR MIN TEMP:  53; 6HR MAX TEMP:  73;

GREENVILLE     FAIR      60  49  66 N3        29.91F
6HR MIN TEMP:  57; 6HR MAX TEMP:  77;

GRENADA        FAIR      48  46  93 CALM      29.94R
OLIVE BRANCH   CLEAR     55  41  58 CALM      29.94S
OXFORD         FAIR      50  45  81 CALM      29.95S
TUNICA         FAIR      52  45  76 NE3       29.94S
$$

MSZ003>006-009-014>017-022>024-029>033-037>039-240700-
NORTHEAST MISSISSIPPI

CITY           SKY/WX    TMP DP  RH WIND       PRES   REMARKS
BELMONT        FAIR      48  44  87 CALM      29.96S
COLUMBUS AFB   FAIR      51  50  97 CALM      29.94S
6HR MIN TEMP:  49; 6HR MAX TEMP:  74;

CORINTH        FAIR      48  45  87 CALM      29.96S
GOLDN TRIANGLE FAIR      54  46  76 CALM      29.97S
STARKVILLE     FAIR      50  46  87 CALM      29.94S
TUPELO         FAIR      53  46  77 CALM      29.95R
6HR MIN TEMP:  53; 6HR MAX TEMP:  74;

$$

MSZ040-058-240700-
CENTRAL MISSISSIPPI

CITY           SKY/WX    TMP DP  RH WIND       PRES   REMARKS
JACKSON INTL   FAIR      57  53  86 CALM      29.92R
6HR MIN TEMP:  56; 6HR MAX TEMP:  76;

JACKSON HAWKNS FAIR      59  52  77 CALM      29.93R
6HR MIN TEMP:  59; 6HR MAX TEMP:  79;

MERIDIAN KEY   MOCLDY    55  51  86 CALM      29.94R
6HR MIN TEMP:  54; 6HR MAX TEMP:  74;

MERIDIAN NAS   FAIR      54  48  80 CALM      29.94R
6HR MIN TEMP:  53; 6HR MAX TEMP:  76;

RAYMOND        FAIR      54  48  82 CALM      29.93S HAZE
VICKSBURG      FAIR      58  56  93 CALM      29.91S
6HR MIN TEMP:  58; 6HR MAX TEMP:  78;

$$

MSZ059>079-240700-
SOUTH MISSISSIPPI

CITY           SKY/WX    TMP DP  RH WIND       PRES   REMARKS
BROOKHAVEN     FAIR      55  54  94 CALM      29.94R
HATTIESBURG    FAIR      62  59  90 CALM      29.92S
6HR MIN TEMP:  62; 6HR MAX TEMP:  76;

MCCOMB         FAIR      61  55  81 SW3       29.93R
6HR MIN TEMP:  57; 6HR MAX TEMP:  81;

NATCHEZ        FAIR      55  48  76 CALM      29.90F
6HR MIN TEMP:  55; 6HR MAX TEMP:  77;

PINE BELT      FAIR      59  55  88 CALM      29.93S
6HR MIN TEMP:  59; 6HR MAX TEMP:  75;

$$

MSZ080>082-240700-
COASTAL MISSISSIPPI

CITY           SKY/WX    TMP DP  RH WIND       PRES   REMARKS
BILOXI         FAIR      68  67  96 SW6       29.92F
6HR MIN TEMP:  68; 6HR MAX TEMP:  73;

PASCAGOULA     FOG       61  61 100 CALM      29.92F VSB 1/4
6HR MIN TEMP:  61; 6HR MAX TEMP:  73;

GULFPORT       FAIR      70  66  87 CALM      29.91F
6HR MIN TEMP:  70; 6HR MAX TEMP:  77;

$$



USA.gov is the U.S. government's official web portal to all federal, state and local government web resources and services.